Location: Del Amo
(33.8464°N, 118.2104°W)
Time: 18:48:07
(UTC+00:00)

S-56A Canister/Altair - Pass Details

Date: 14 September 2024
Orbit: 636 x 2487 km, 38.9° (Epoch: 14 October)

Event Time Altitude Azimuth Distance (km) Brightness Sun altitude
Rises 10:36:15 0° 281° (WNW) 5,252 - -35.9°
Reaches altitude 10° 10:40:33 10° 268° (W) 4,528 - -35.1°
Maximum altitude 10:49:24 22° 224° (SW) 4,022 - -33.6°
Exits shadow 10:58:49 11° 183° (S) 5,034 11.4 -31.9°
Drops below altitude 10° 10:59:25 10° 181° (S) 5,132 11.4 -31.8°
Sets 11:04:52 0° 168° (SSE) 6,125 12.0 -30.8°
